This is the latest recevied weather packets stored in our database for station/object W7TTE. If no packets are shown the sender has not sent any weather packets the latest 10 day(s).
| Time | Temp. | Humidity | Pressure | Rain* | Wind** | Luminosity | Snow |
|---|---|---|---|---|---|---|---|
| 1778114910 | 28.89° C | 21% | 1014.6 hPa | 0 mm | - | 86 W/m² | - |
| 1778114607 | 29.44° C | 20% | 1014.6 hPa | 0 mm | - | 91 W/m² | - |
| 1778114304 | 29.44° C | 21% | 1014.7 hPa | 0 mm | - | 119 W/m² | - |
| 1778113999 | 29.44° C | 20% | 1014.5 hPa | 0 mm | - | 126 W/m² | - |
| 1778113695 | 29.44° C | 21% | 1014.5 hPa | 0 mm | - | 149 W/m² | - |
| 1778113391 | 30° C | 20% | 1014.6 hPa | 0 mm | - | 166 W/m² | - |
| 1778113089 | 29.44° C | 20% | 1014.4 hPa | 0 mm | - | 179 W/m² | - |
| 1778112786 | 30° C | 20% | 1014.5 hPa | 0 mm | - | 191 W/m² | - |
| 1778112482 | 29.44° C | 20% | 1014.6 hPa | 0 mm | - | 206 W/m² | - |
| 1778112178 | 30° C | 19% | 1014.6 hPa | 0 mm | - | 221 W/m² | - |
| 1778111875 | 30° C | 20% | 1014.7 hPa | 0 mm | - | 235 W/m² | - |
| 1778111570 | 29.44° C | 20% | 1014.4 hPa | 0 mm | - | 248 W/m² | - |
| 1778111268 | 29.44° C | 20% | 1014.6 hPa | 0 mm | - | 264 W/m² | - |
| 1778110965 | 29.44° C | 20% | 1014.7 hPa | 0 mm | - | 282 W/m² | - |
| 1778110662 | 30° C | 20% | 1014.7 hPa | 0 mm | - | 296 W/m² | - |
| 1778110359 | 29.44° C | 21% | 1014.7 hPa | 0 mm | - | 313 W/m² | - |
| 1778110055 | 30° C | 20% | 1014.7 hPa | 0 mm | - | 329 W/m² | - |
| 1778109750 | 30° C | 19% | 1014.8 hPa | 0 mm | - | 345 W/m² | - |
| 1778109447 | 29.44° C | 20% | 1014.8 hPa | 0 mm | - | 358 W/m² | - |
| 1778109146 | 30° C | 20% | 1014.9 hPa | 0 mm | - | 374 W/m² | - |
| 1778108842 | 30° C | 20% | 1015 hPa | 0 mm | - | 391 W/m² | - |
| 1778108539 | 30° C | 19% | 1014.9 hPa | 0 mm | - | 405 W/m² | - |
| 1778108235 | 30° C | 20% | 1015 hPa | 0 mm | - | 423 W/m² | - |
| 1778107933 | 30° C | 20% | 1015.1 hPa | 0 mm | - | 438 W/m² | - |
| 1778107629 | 30.56° C | 20% | 1015.1 hPa | 0 mm | - | 448 W/m² | - |
* Rain latest hour (hover to see other rain measurements)
** Current wind speed in m/s (hover to see current wind gust speed)